Regional Weather Roundup
Issued by NWS

Home | Current Version | Previous Version | Graphics & Text | Print | Product List | Glossary On
Versions: 1 2 3 4 5 6 7 8 9 10 11 12 13 14 15 16 17 18 19 20 21 22 23 24 25 26 27 28 29 30 31 32 33 34 35 36 37 38 39 40 41 42 43 44 45 46 47 48 49 50
000
ASUS45 KBOU 260407
RWRCO

WEATHER ROUNDUP FOR COLORADO
NATIONAL WEATHER SERVICE DENVER/BOULDER CO
900 PM MST WED FEB 25 2015

NOTE: "FAIR" INDICATES FEW OR NO CLOUDS BELOW 12000 FEET WITH NO
SIGNIFICANT WEATHER AND/OR OBSTRUCTIONS TO VISIBILITY.

COZ001>005-013-030-031-260500-
...NORTHWEST COLORADO...

CITY           SKY/WX    TMP DP  RH WIND       PRES   REMARKS
CRAIG          MOCLDY    25  15  66 CALM      30.07R
HAYDEN         MOCLDY    27  14  59 N5        30.05R WCI  21
MEEKER         CLOUDY    28  17  63 NE9       30.07R WCI  19
MOUNT WERNER   NOT AVBL
STEAMBOAT SPGS CLOUDY    22  11  60 NW9       30.03R WCI  12
WALDEN         CLOUDY    14  12  92 NW8       30.02R WCI   3
$$

COZ006>008-011-260500-
...WEST CENTRAL VALLEYS...

CITY           SKY/WX    TMP DP  RH WIND       PRES   REMARKS
GRAND JUNCTION CLOUDY    37  31  78 W5        30.04R
MONTROSE       CLOUDY    32  30  92 SW5       30.03R WCI  27
EAGLE          CLOUDY    30  27  86 CALM      30.04R
RIFLE          MOCLDY    34  25  69 CALM      30.03R
DELTA          LGT RAIN  36  33  90 CALM      30.03R
NUCLA          MOCLDY    32  30  93 E6        30.04R WCI  26
$$

COZ017>023-064>068-260500-
...SOUTHWEST COLORADO...

CITY           SKY/WX    TMP DP  RH WIND       PRES   REMARKS
DURANGO        PTCLDY    30  19  63 SW3       29.97R
CORTEZ         MOCLDY    31  26  82 NE12      30.00R WCI  22
PAGOSA SPRINGS PTCLDY    23  23  99 CALM      29.97R
TELLURIDE      LGT SNOW  25  23  91 W8        30.01R WCI  17
WOLF CREEK PAS MOCLDY    10   5  79 SW10      29.97S WCI  -3
$$

COZ009-010-012-014-032>034-037-058>063-260500-
...CENTRAL COLORADO...

CITY           SKY/WX    TMP DP  RH WIND       PRES   REMARKS
ASPEN          CLOUDY    26  22  84 NW5       29.96R WCI  20
BUENA VISTA    CLOUDY    28  19  67 CALM      29.94S
COPPER MTN     CLOUDY    14   9  79 W20G26    29.91R WCI  -3
BERTHOUD PASS  SNOW       1  -4  78 MISG      29.92R VSB 1/2
COTTONWOOD PAS LGT SNOW  25  18  74 W8        29.93S WCI  16
GUNNISON       CLOUDY    27  21  80 SW5       29.98S WCI  21
KREMMLING      CLOUDY    23  12  63 NW8       30.04R WCI  14
LEADVILLE      LGT SNOW  16  10  77 N12       29.92R WCI   3
MONARCH PASS     N/A     14  10  85 W15       30.00S WCI  -1
SALIDA         CLOUDY    29  24  81 SE21G30   30.02R WCI  16
SUNLIGHT       CLOUDY   N/A N/A N/A CALM        N/A
WILKERSON PASS LGT SNOW   9   5  85 E12G17    29.94R VSB 3/4 WCI  -6
$$

COZ069>075-260500-
...SAN LUIS VALLEY/SANGRE DE CRISTO MOUNTAINS...

CITY           SKY/WX    TMP DP  RH WIND       PRES   REMARKS
ALAMOSA        MOCLDY    14  11  87 E8        29.95R WCI   3
LA VETA PASS   HVY SNOW  16  12  86 MISG      29.96S VSB 1/4
SAGUACHE       MOCLDY    30  21  69 NW15      29.94R WCI  19
$$

COZ035-036-038>040-260500-
...NORTHERN COLORADO FRONT RANGE...

CITY           SKY/WX    TMP DP  RH WIND       PRES   REMARKS
DENVER INTL AP LGT SNOW  26  24  92 N8        30.09R VSB 1   WCI  18
DMNS CITY PARK   N/A     26  25  97 NW3       30.11R
AURORA         FLURRIES  24  24  99 W2        30.09R
FRONT RANGE AP NOT AVBL
ERIE MUNI ARPT LGT SNOW  28  27  99 NE10G20   30.13R WCI  18
BOULDER MUN AP LGT SNOW  28  28 100 CALM      30.11R
CENTENNIAL     LGT SNOW  25  23  92 CALM      30.07R FOG
BROOMFIELD     LGT SNOW  27  27 100 CALM      30.10R VSB 1
FORT COLLINS   CLOUDY    25  19  80 N18       30.15R WCI  11
LONGMONT       SNOW      28  25  89 N15G23    30.16R VSB 1/2 WCI  16
$$

COZ041-046-047-076>085-087-088-260500-
...PIKES PEAK/PALMER DIVIDE AND SOUTHERN FOOTHILLS...

CITY           SKY/WX    TMP DP  RH WIND       PRES   REMARKS
COLO. SPRINGS  FLURRIES  26  20  77 N12       30.07R WCI  16
A. F. ACADEMY  FLURRIES  23  21  93 N8        30.05R WCI  14
ELLICOTT       NOT AVBL
FALCON         LGT SNOW  22  19  87 N10G21    30.05R WCI  11
FORT CARSON    LGT SNOW  27  23  85 N14       30.05R FOG     WCI  15
LIMON          CLOUDY    25  22  88 N5        30.06R WCI  19
MONUMENT HILL  LGT SNOW  19  19 100 NE10      30.03R WCI   8
TRINIDAD       LGT SNOW  29  26  89 N18       30.05R VSB 3/4 WCI  16
$$

COZ042>045-048>051-090-091-260500-
...NORTHEAST COLORADO...

CITY           SKY/WX    TMP DP  RH WIND       PRES   REMARKS
GREELEY ARPT   CLOUDY    27  16  63 N21G30    30.13R WCI  13
AKRON          LGT SNOW  25  22  88 NE13      30.09R VSB 1   WCI  14
BURLINGTON     PTCLDY    26  19  74 NE15      30.07R WCI  14
WRAY           CLOUDY    26  18  70 NE17G23   30.14R WCI  14
STERLING       LGT SNOW  27  23  86 E10       30.14R WCI  17
HOLYOKE        NOT AVBL
FORT MORGAN    CLOUDY    25  15  65 N28G37    30.13R WCI   9
$$

COZ086-089-092>099-260500-
...SOUTHEAST COLORADO...

CITY           SKY/WX    TMP DP  RH WIND       PRES   REMARKS
PUEBLO         LGT SNOW  30  27  88 N15G22    30.09R FOG     WCI  19
LA JUNTA       CLOUDY    33  30  88 NE12      30.09R WCI  24
LAMAR          CLOUDY    32  26  78 NE9       30.07R WCI  24
SPRINGFIELD      N/A     31  28  89 NE23      30.04R WCI  18
$$



USA.gov is the U.S. government's official web portal to all federal, state and local government web resources and services.